Regional Weather Roundup
Issued by NWS Cleveland, OH

Home | Current Version | Previous Version | Graphics & Text | Print | Product List | Glossary On
Versions: 1 2 3 4 5 6 7 8 9 10 11 12 13 14 15 16 17 18 19 20 21 22 23 24 25 26 27 28 29 30 31 32 33 34 35 36 37 38 39 40 41 42 43 44 45 46 47 48 49 50
000
ASUS41 KCLE 300200
RWRCLE
OHIO REGIONAL WEATHER ROUNDUP
NATIONAL WEATHER SERVICE WILMINGTON, OH
1000 PM EDT MON SEP 29 2014

NOTE: "FAIR" INDICATES FEW OR NO CLOUDS BELOW 12,000 FEET WITH NO
SIGNIFICANT WEATHER AND/OR OBSTRUCTIONS TO VISIBILITY.

OHZ001>008-015>018-024>027-034-035-043-044-300300-
   NORTHWEST OHIO

CITY           SKY/WX    TMP DP  RH WIND       PRES   REMARKS
DEFIANCE       CLEAR     61  55  81 CALM      29.93S
FINDLAY        CLEAR     63  51  65 SW3       29.92R
TOLEDO EXPRESS CLEAR     59  55  87 CALM      29.92R
TOLEDO METCALF CLEAR     62  55  77 S6        29.92S
LIMA           CLEAR     61  52  72 CALM      29.94S
$$

OHZ009>014-019>023-028>033-038-089-300300-
   NORTHEAST OHIO

CITY           SKY/WX    TMP DP  RH WIND       PRES   REMARKS
CLE-HOPKINS    CLEAR     59  55  87 S7        29.94S
CLE-LAKEFRONT  CLEAR     66  55  67 S8        29.91S
CUY CO. ARPT   NOT AVBL
LORAIN-ELYRIA  CLEAR     60  55  83 S3        29.93S
ASHTABULA      CLEAR     53  52  96 CALM      29.93S FOG
AKRON-CANTON   CLEAR     66  54  65 E3        29.94S
WOOSTER        NOT AVBL
MANSFIELD      CLEAR     60  56  86 CALM      29.95S
YOUNGSTOWN     CLEAR     56  54  93 E5        29.94S
$$

OHZ042-051>053-060>062-070>072-077>081-300300-
  SOUTHWEST OHIO

CITY           SKY/WX    TMP DP  RH WIND       PRES   REMARKS
CINC-COVINGTON CLEAR     64  50  60 CALM      29.95R
CINC-LUNKEN    CLEAR     59  55  87 CALM      29.95R
HAMILTON       CLEAR     55  53  93 CALM      29.95R
DAYTON         NOT AVBL
WRIGHT-PAT AFB CLEAR     60  51  72 CALM      29.95R
DAYTON GENERAL CLEAR     69  47  45 N5        29.95R
WILMINGTON     CLEAR     61  49  64 CALM      29.95R
$$

OHZ036-037-039>041-045>050-054>059-063>069-073>076-082>088-300300-
  CENTRAL AND SOUTHEAST OHIO

CITY           SKY/WX    TMP DP  RH WIND       PRES   REMARKS
COLUMBUS       CLEAR     66  51  58 CALM      29.93R
OSU AIRPORT    CLEAR     64  48  56 NW6       29.93S
BOLTON FIELD   NOT AVBL
RICKENBACK AFB NOT AVBL
NEWARK         CLEAR     55  52  89 CALM      29.93R
MARION         CLEAR     61  49  64 CALM      29.94R
LANCASTER      CLEAR     56  51  84 CALM      29.94R
ZANESVILLE     CLEAR     61  55  81 CALM      29.92S
NEW PHILLY     CLEAR     59  57  93 CALM      29.94R
$$


USA.gov is the U.S. government's official web portal to all federal, state and local government web resources and services.